Petersburg, AK

4:45 AM AKDT on September 22, 2017 (GMT -0800)
Johnson Petersburg

Weather History for PAPG - October, 2013

Change the Weather History Date:

Wednesday, October 9, 2013

  Actual Average Record
Temperature  
Mean Temperature 46 °F -  
Max Temperature 51 °F 47 °F 60 °F (2015)
Min Temperature 42 °F 39 °F 32 °F (1983)
Degree Days  
Heating Degree Days 18    
Moisture  
Dew Point 41 °F    
Average Humidity 78    
Maximum Humidity 93    
Minimum Humidity 62    
Precipitation  
Precipitation 0.10 in - - ()
Sea Level Pressure  
Sea Level Pressure 29.61 in    
Wind  
Wind Speed 6 mph (SSW)    
Max Wind Speed 16 mph    
Max Gust Speed 25 mph    
Visibility 10 miles    
Events Rain    
Averages and records for this station are not official NWS values.
T = Trace of Precipitation, MM = Missing Value Source: NWS Daily Summary

Daily Weather History Graph

Daily Weather History Graph

Search for Another Location

Airport or City:

Trip Planner

Search our weather history database for the weather conditions in past years. The results will help you decide how hot, cold, wet, or windy it might be!

Date:

Astronomy

Oct. 09, 2013 Rise Set
Actual Time 7:12 AM AKDT 6:03 PM AKDT
Civil Twilight 6:34 AM AKDT 6:41 PM AKDT
Nautical Twilight 5:50 AM AKDT 7:25 PM AKDT
Astronomical Twilight 5:05 AM AKDT 8:10 PM AKDT
Moon 1:03 PM AKDT (10/9) 8:58 PM AKDT (10/9)
Length of Visible Light 12h 07m
Length of Day
10h 51m
Waxing Crescent, 27% of the Moon is Illuminated
Oct 9
Waxing Crescent
Oct 11
First Quarter
Oct 18
Full
Oct 26
Last Quarter
Nov 3
New

Hourly Weather History & Observations

Time (AKDT) Temp. Windchill Dew Point Humidity Pressure Visibility Wind Dir Wind Speed Gust Speed Precip Events Conditions
12:16 AM 46.4 °F 44.3 °F 42.8 °F 87% 29.77 in 10.0 mi ESE 4.6 mph - 0.03 in   Overcast
1:16 AM 46.4 °F 43.5 °F 42.8 °F 87% 29.71 in 10.0 mi ESE 5.8 mph - N/A   Overcast
1:36 AM 46.4 °F 43.5 °F 42.8 °F 87% 29.67 in 9.0 mi ESE 5.8 mph - N/A   Overcast
1:56 AM 46.4 °F 45.2 °F 42.8 °F 87% 29.65 in 7.0 mi SSE 3.5 mph - N/A   Overcast
2:36 AM 46.4 °F 43.5 °F 42.8 °F 87% 29.60 in 8.0 mi ESE 5.8 mph - N/A   Overcast
3:56 AM 48.2 °F - 44.6 °F 87% 29.50 in 6.0 mi SE 6.9 mph - N/A   Mostly Cloudy
4:16 AM 48.2 °F - 44.6 °F 87% 29.48 in 5.0 mi Calm Calm - N/A   Mostly Cloudy
4:36 AM 48.2 °F - 44.6 °F 87% 29.46 in 6.0 mi SSE 3.5 mph - N/A   Mostly Cloudy
5:16 AM 48.2 °F - 44.6 °F 87% 29.44 in 10.0 mi ENE 8.1 mph - N/A   Overcast
5:36 AM 48.2 °F - 44.6 °F 87% 29.43 in 5.0 mi ESE 3.5 mph - N/A   Mostly Cloudy
5:56 AM 48.2 °F - 44.6 °F 87% 29.42 in 10.0 mi North 8.1 mph - N/A   Mostly Cloudy
6:16 AM 48.2 °F - 46.4 °F 93% 29.43 in 10.0 mi Calm Calm - N/A   Overcast
6:36 AM 51.8 °F - 44.6 °F 76% 29.42 in 10.0 mi South 10.4 mph 21.9 mph N/A   Overcast
6:56 AM 51.8 °F - 44.6 °F 76% 29.43 in 10.0 mi SSW 16.1 mph 25.3 mph 0.10 in   Overcast
7:36 AM 50.0 °F - 44.6 °F 82% 29.46 in 10.0 mi SW 6.9 mph - N/A   Mostly Cloudy
8:16 AM 48.2 °F - 41.0 °F 76% 29.51 in 10.0 mi SW 5.8 mph - N/A   Mostly Cloudy
8:56 AM 48.2 °F - 41.0 °F 76% 29.55 in 10.0 mi SSW 6.9 mph - N/A   Mostly Cloudy
9:16 AM 48.2 °F - 41.0 °F 76% 29.57 in 10.0 mi SSW 5.8 mph - N/A   Mostly Cloudy
9:36 AM 48.2 °F - 39.2 °F 71% 29.58 in 10.0 mi SSW 5.8 mph - N/A   Mostly Cloudy
9:56 AM 48.2 °F - 37.4 °F 66% 29.58 in 10.0 mi South 6.9 mph - N/A   Mostly Cloudy
10:16 AM 48.2 °F - 39.2 °F 71% 29.58 in 10.0 mi SSW 8.1 mph - N/A   Mostly Cloudy
10:36 AM 50.0 °F - 39.2 °F 66% 29.58 in 10.0 mi SSW 9.2 mph - N/A   Mostly Cloudy
10:56 AM 50.0 °F - 37.4 °F 62% 29.58 in 10.0 mi SSW 10.4 mph 17.3 mph N/A   Mostly Cloudy
11:55 AM 48.2 °F - 39.2 °F 71% 29.60 in 10.0 mi SE 8.1 mph - N/A   Overcast
12:36 PM 48.2 °F - 39.2 °F 71% 29.61 in 7.0 mi SW 10.4 mph 18.4 mph N/A   Overcast
12:56 PM 48.2 °F - 39.2 °F 71% 29.60 in 10.0 mi South 8.1 mph 17.3 mph N/A   Overcast
1:16 PM 48.2 °F - 39.2 °F 71% 29.61 in 10.0 mi South 8.1 mph 17.3 mph N/A   Overcast
1:36 PM 46.4 °F 41.9 °F 41.0 °F 81% 29.61 in 10.0 mi South 9.2 mph 17.3 mph N/A   Overcast
1:55 PM 48.2 °F - 41.0 °F 76% 29.61 in 10.0 mi SSE 8.1 mph - N/A Rain Light Rain Showers
2:36 PM 48.2 °F - 41.0 °F 76% 29.62 in 10.0 mi SW 5.8 mph - N/A   Overcast
2:56 PM 48.2 °F - 41.0 °F 76% 29.62 in 10.0 mi SSW 3.5 mph - N/A   Overcast
3:16 PM 48.2 °F - 41.0 °F 76% 29.62 in 10.0 mi South 9.2 mph - N/A   Overcast
3:36 PM 48.2 °F - 39.2 °F 71% 29.62 in 10.0 mi SSW 9.2 mph - N/A   Overcast
3:56 PM 48.2 °F - 39.2 °F 71% 29.62 in 10.0 mi SSW 6.9 mph - N/A   Overcast
4:16 PM 48.2 °F - 39.2 °F 71% 29.63 in 10.0 mi South 8.1 mph 17.3 mph N/A   Overcast
4:36 PM 48.2 °F - 39.2 °F 71% 29.63 in 10.0 mi SSW 9.2 mph - N/A   Overcast
4:56 PM 48.2 °F - 39.2 °F 71% 29.64 in 10.0 mi SSW 8.1 mph - N/A   Overcast
5:16 PM 48.2 °F - 39.2 °F 71% 29.65 in 10.0 mi SSW 9.2 mph - N/A   Overcast
5:56 PM 48.2 °F - 39.2 °F 71% 29.66 in 10.0 mi South 8.1 mph - N/A   Mostly Cloudy
6:16 PM 46.4 °F 42.4 °F 39.2 °F 76% 29.67 in 10.0 mi SW 8.1 mph - N/A   Mostly Cloudy
6:36 PM 46.4 °F 43.5 °F 39.2 °F 76% 29.68 in 10.0 mi SW 5.8 mph - N/A   Mostly Cloudy
6:56 PM 46.4 °F 42.9 °F 39.2 °F 76% 29.69 in 10.0 mi SW 6.9 mph - N/A   Overcast
7:16 PM 46.4 °F 42.9 °F 37.4 °F 71% 29.70 in 10.0 mi SW 6.9 mph - N/A   Overcast
7:36 PM 46.4 °F 44.3 °F 37.4 °F 71% 29.71 in 10.0 mi WSW 4.6 mph - N/A   Overcast
7:56 PM 46.4 °F 44.3 °F 37.4 °F 71% 29.72 in 10.0 mi WSW 4.6 mph - N/A   Overcast
8:16 PM 44.6 °F 42.2 °F 39.2 °F 81% 29.72 in 10.0 mi West 4.6 mph - N/A   Mostly Cloudy
8:56 PM 44.6 °F 41.4 °F 39.2 °F 81% 29.73 in 10.0 mi West 5.8 mph - N/A   Mostly Cloudy
10:36 PM 42.8 °F 40.1 °F 39.2 °F 87% 29.78 in 10.0 mi SW 4.6 mph - N/A   Overcast
10:56 PM 42.8 °F - 39.2 °F 87% 29.78 in 10.0 mi Calm Calm - N/A   Overcast
11:16 PM 42.8 °F - 39.2 °F 87% 29.80 in 10.0 mi Calm Calm - N/A   Overcast
11:36 PM 42.8 °F - 39.2 °F 87% 29.80 in 10.0 mi Calm Calm - N/A   Overcast
11:56 PM 42.8 °F - 39.2 °F 87% 29.81 in 10.0 mi Calm Calm - N/A   Overcast